This is the latest recevied weather packets stored in our database for station/object AD7ZD. If no packets are shown the sender has not sent any weather packets the latest 10 day(s).
| Time | Temp. | Humidity | Pressure | Rain* | Wind** | Luminosity | Snow |
|---|---|---|---|---|---|---|---|
| 1777886049 | 10.56° C | 55% | 1008.3 hPa | 0 mm | - | 0 W/m² | - |
| 1777885747 | 10.56° C | 55% | 1008.3 hPa | 0 mm | - | 0 W/m² | - |
| 1777885444 | 11.11° C | 55% | 1008.4 hPa | 0 mm | - | 0 W/m² | - |
| 1777885143 | 10.56° C | 56% | 1008.1 hPa | 0 mm | - | 0 W/m² | - |
| 1777884840 | 10.56° C | 55% | 1008.4 hPa | 0 mm | - | 0 W/m² | - |
| 1777884536 | 10.56° C | 55% | 1008.3 hPa | 0 mm | - | 0 W/m² | - |
| 1777884233 | 10° C | 55% | 1008.5 hPa | 0 mm | - | 0 W/m² | - |
| 1777883929 | 10° C | 55% | 1008.6 hPa | 0 mm | - | 0 W/m² | - |
| 1777883626 | 10.56° C | 54% | 1008.5 hPa | 0 mm | - | 0 W/m² | - |
| 1777883322 | 11.11° C | 53% | 1008.7 hPa | 0 mm | - | 0 W/m² | - |
| 1777883018 | 11.11° C | 52% | 1008.9 hPa | 0 mm | - | 0 W/m² | - |
| 1777882715 | 11.11° C | 53% | 1009 hPa | 0 mm | - | 0 W/m² | - |
| 1777882412 | 11.11° C | 53% | 1008.9 hPa | 0 mm | - | 0 W/m² | - |
| 1777882108 | 11.67° C | 52% | 1008.8 hPa | 0 mm | - | 0 W/m² | - |
| 1777881805 | 11.67° C | 52% | 1008.8 hPa | 0 mm | - | 0 W/m² | - |
| 1777881502 | 11.11° C | 53% | 1008.8 hPa | 0 mm | - | 0 W/m² | - |
| 1777881199 | 11.67° C | 52% | 1008.8 hPa | 0 mm | - | 0 W/m² | - |
| 1777880897 | 12.22° C | 52% | 1008.9 hPa | 0 mm | - | 0 W/m² | - |
| 1777880594 | 12.22° C | 53% | 1008.8 hPa | 0 mm | - | 0 W/m² | - |
| 1777880292 | 11.67° C | 53% | 1008.8 hPa | 0 mm | - | 0 W/m² | - |
| 1777879990 | 11.11° C | 55% | 1008.8 hPa | 0 mm | - | 0 W/m² | - |
| 1777879689 | 11.11° C | 55% | 1008.7 hPa | 0 mm | - | 0 W/m² | - |
| 1777879384 | 11.11° C | 55% | 1008.7 hPa | 0 mm | - | 0 W/m² | - |
| 1777879082 | 11.67° C | 54% | 1008.6 hPa | 0 mm | - | 0 W/m² | - |
| 1777878779 | 11.67° C | 54% | 1008.7 hPa | 0 mm | - | 0 W/m² | - |
* Rain latest hour (hover to see other rain measurements)
** Current wind speed in m/s (hover to see current wind gust speed)